Location: Antioch Baptist Church
(32.6696°N, 85.7327°W)
Time: 21:12:35
(UTC+00:00)

Meteor 1-13 Rocket - Pass Details

Date: 14 July 2020
Orbit: 830 x 913 km, 81.3° (Epoch: 13 August)

Event Time Altitude Azimuth Distance (km) Brightness Sun altitude
Rises 07:59:27 0° 351° (N) 3,465 8.0 -27.4°
Reaches altitude 10° 08:01:55 10° 352° (N) 2,511 7.2 -27.1°
Maximum altitude 08:07:37 89° 268° (W) 856 4.1 -26.4°
Enters shadow 08:08:12 73° 177° (S) 888 4.1 -26.4°
